Location: Martley
(52.2333°N, 2.3667°W)
Time: 08:12:17
(UTC+00:00)

COSMOS 2406 - Pass Details

Date: 11 December 2019
Orbit: 844 x 863 km, 71.0° (Epoch: 28 January)

Event Time Altitude Azimuth Distance (km) Brightness Sun altitude
Exits shadow 06:44:03 - 331° (NNW) 2,652 5.3 -11.9°
Reaches altitude 10° 06:44:29 10° 332° (NNW) 2,490 5.2 -11.9°
Maximum altitude 06:50:12 71° 56° (ENE) 897 3.5 -11.1°
Drops below altitude 10° 06:55:51 10° 141° (SE) 2,464 6.7 -10.3°
Sets 06:58:18 0° 144° (SE) 3,394 7.5 -9.9°
